Location: Balaclava NSW 2575, Australia
(34.4510°S, 150.4953°E)
Time: 07:07:17
(UTC+10:00)

Vanguard 2 - Pass Details

Date: 18 June 2021
Orbit: 552 x 2937 km, 32.9° (Epoch: 05 August)

Event Time Altitude Azimuth Distance (km) Brightness Sun altitude
Rises 08:03:29 0° 275° (W) 4,305 10.9 9.6°
Reaches altitude 10° 08:05:54 10° 276° (W) 3,588 10.6 10.0°
Maximum altitude 08:15:45 84° 2° (N) 2,078 10.0 11.5°
Drops below altitude 10° 08:31:51 10° 87° (E) 5,547 12.8 14.1°
Sets 08:36:35 0° 87° (E) 6,713 13.2 14.8°
